Location: ????
(54.8897°N, 38.6090°E)
Time: 13:22:04
(UTC+00:00)

Daily predictions for brighter satellites

Satellite Brightness Start Highest point End
(mag) Time Altitude Azimuth Time Altitude Azimuth Time Altitude Azimuth
Cosmos 2297 3.8 13:31:13 10° SSW 13:36:54 83° ESE 13:42:35 10° NE
Cosmos 1892 Rocket 3.6 13:35:29 10° N 13:39:58 72° ENE 13:44:24 10° SSE
Cosmos 1464 Rocket 4.0 13:33:48 10° S 13:39:58 82° E 13:46:08 10° NNE
SMAP 3.7 13:36:06 10° SE 13:40:15 33° ENE 13:44:26 10° N
Thor Agena Rocket 3.9 13:36:13 10° SE 13:41:09 45° ENE 13:46:03 10° N
Cosmos 2297 Rocket 2.6 13:38:37 10° NNW 13:44:02 43° NE 13:49:25 10° ESE
Cosmos 2151 4.2 13:44:18 10° NNE 13:47:25 20° ENE 13:50:31 10° ESE
Cosmos 1741 Rocket 4.1 13:43:32 10° SSW 13:48:51 90° SE 13:54:13 10° NNE
Aureole 3 Rocket 4.3 13:45:29 10° SSW 13:49:51 54° WNW 13:55:58 10° N
Cosmos 1092 Rocket 4.0 13:45:07 10° N 13:51:19 72° ENE 13:57:26 10° SSE
CZ-2D R/B 4.1 13:49:27 10° ESE 13:51:47 19° ENE 13:54:08 10° NNE
BlueWalker 3 2.8 13:51:07 10° W 13:54:37 48° SSW 13:58:08 10° ESE
Meteor 2-1 Rocket 4.4 13:50:26 10° S 13:56:22 82° ESE 14:02:15 10° NNE
Cosmos 1743 3.5 13:56:15 10° NNE 13:58:51 21° ENE 14:01:25 10° ESE
Lacrosse 4 Rocket 1.8 13:55:32 10° SSW 13:59:26 46° ESE 14:03:13 10° NE
ATLAS CENTAUR R/B 0.8 13:57:21 10° NW 14:00:37 56° NE 14:03:47 10° ESE
CZ-4C R/B 2.8 13:55:53 10° NW 14:02:04 62° NNE 14:10:00 10° ESE
Cosmos 1484 Rocket 2.4 14:00:06 10° SSE 14:03:38 83° ENE 14:07:10 10° NNW
Iridium 45 4.1 14:02:25 10° S 14:05:33 74° E 14:08:47 10° N
Cosmos 724 4.4 14:01:13 10° NW 14:07:19 65° NE 14:13:15 10° ESE
Cosmos 2034 Rocket 4.1 14:01:23 10° S 14:07:43 88° E 14:14:08 10° NNE
JB-3 4.1 14:04:13 10° NNE 14:07:57 83° ESE 14:11:35 10° SSW
Meteor 1-28 Rocket 3.4 14:06:31 10° NNE 14:09:42 39° E 14:12:52 10° S
NOSS 3-3 (A) 4.5 14:05:18 10° NW 14:12:17 81° NE 14:20:42 10° SE
Iridium 51 4.0 14:09:26 10° SSE 14:12:26 46° E 14:15:32 10° NNE
MOS 1 Rocket 3.9 14:10:20 10° SE 14:14:51 38° ENE 14:19:37 10° N
Cosmos 1602 Rocket 4.1 14:10:53 10° N 14:14:58 35° ENE 14:18:59 10° SE
Cosmos 1570 Rocket 4.0 14:09:44 10° NNW 14:15:08 83° ENE 14:20:28 10° SSE
Cosmos 1867 3.8 14:09:58 10° NW 14:15:20 51° NNE 14:20:39 10° ESE
IGS 5A 3.3 14:12:37 10° SSE 14:16:36 87° ENE 14:20:36 10° NNW
Cosmos 1455 Rocket 3.0 14:12:54 10° S 14:17:14 89° W 14:21:38 10° NNE
Lacrosse 5 rocket 1.9 14:15:06 10° SW 14:18:37 39° SE 14:21:16 15° E
Cosmos 1844 Rocket 4.3 14:15:08 10° NNW 14:18:47 17° NNE 14:21:38 12° NE
Cosmos 2084 3.5 14:15:00 10° SW 14:19:08 64° SE 14:22:25 16° ENE
CENTAUR R/B 2.6 14:14:20 10° SW 14:20:05 70° SE 14:26:39 13° NE
IRS-P3 4.4 14:15:35 10° SE 14:20:37 45° ENE 14:25:41 10° N
Cosmos 2084 Rocket 3.5 14:17:10 10° NW 14:21:20 57° NNE 14:25:29 10° ESE
SAR-Lupe-4 3.8 14:18:11 10° SE 14:21:36 45° ENE 14:25:02 10° N
Cosmos 836 Rocket 4.5 14:18:26 10° NNW 14:23:43 86° ENE 14:28:58 10° SSE
Cosmos 2266 Rocket 4.2 14:19:40 10° N 14:25:39 46° ENE 14:31:30 10° SE
Cosmos 2263 Rocket 3.0 14:20:50 10° NNW 14:25:50 31° NE 14:30:18 12° E
Cosmos 292 Rocket 3.9 14:21:33 10° SSW 14:26:21 79° WNW 14:31:11 10° NNE
Cosmos 1315 Rocket 2.6 14:22:53 10° S 14:26:43 74° E 14:30:33 10° NNE
Resurs 01 Rocket 3.5 14:28:00 12° NE 14:28:00 12° NE 14:29:06 10° NNE
SL-16 R/B 2.5 14:21:11 10° NNE 14:27:28 78° ESE 14:33:41 10° SSW
Cosmos 1607 3.9 14:22:17 10° NW 14:28:32 79° NE 14:34:49 10° SE
SAR-Lupe-1 4.3 14:25:18 10° SE 14:28:46 48° ENE 14:32:17 10° N
SJ 16-02 3.7 14:26:14 10° WNW 14:28:49 15° NW 14:31:26 10° N
CZ-2D R/B 4.4 14:25:42 10° ESE 14:29:13 26° ENE 14:32:43 10° N
NOSS 7 (H) 4.4 14:26:25 10° NW 14:29:16 42° NNE 14:31:04 19° E
YAOGAN 1 3.5 14:29:14 10° ESE 14:32:43 25° ENE 14:36:11 10° N
Intercosmos 24 3.8 14:29:20 10° NNW 14:33:46 90° ENE 14:37:21 10° S
Cosmos 2227 Rocket 2.5 14:29:34 10° NNW 14:35:00 45° NE 14:40:25 10° ESE
Cosmos 1782 3.0 14:31:54 10° SSE 14:35:18 40° E 14:37:56 15° NNE
USA 215 3.3 14:29:44 13° E 14:35:37 75° N 14:42:10 10° W
CORIOLIS 4.2 14:32:05 10° SSE 14:37:26 87° WSW 14:42:48 10° NNW
USA 281 4.5 14:38:01 16° NE 14:40:49 21° NNE 14:45:31 10° NNW
Cosmos 1356 Rocket 3.4 14:36:51 10° SSW 14:40:54 85° W 14:45:02 10° NNE
Cosmos 405 Rocket 2.7 14:37:44 10° NNW 14:41:00 65° W 14:44:12 10° S
Cosmos 773 Rocket 4.0 14:36:17 10° NNW 14:41:30 86° WSW 14:46:44 10° SSE
Cosmos 2369 Rocket 3.1 14:36:58 10° WSW 14:42:21 44° NW 14:47:43 10° NNE
Cosmos 1733 1.5 14:43:20 10° NNW 14:45:16 72° W 14:47:10 10° S
SJ-12 3.6 14:43:07 10° SSE 14:46:53 76° ENE 14:50:41 10° NNW
SJ-6F 4.3 14:44:53 10° SSE 14:48:48 61° ENE 14:52:47 10° N
Cosmos 2208 Rocket 4.2 14:43:45 10° NNW 14:48:55 76° WSW 14:54:05 10° SSE
Cosmos 1825 Rocket 4.0 14:45:16 10° N 14:49:23 38° ENE 14:53:27 10° SE
ARIANE 5 R/B 2.5 14:44:27 10° SSE 14:49:31 90° SW 14:54:42 10° NNW
Cosmos 1933 4.4 14:47:03 10° SE 14:49:46 23° E 14:49:46 23° E
Cosmos 1758 Rocket 3.6 14:46:17 10° NNW 14:50:39 80° W 14:54:55 10° S
Cosmos 2278 Rocket 4.1 14:47:05 10° WNW 14:50:55 18° NNW 14:54:37 10° NNE
Cosmos 1943 Rocket 4.1 14:47:39 10° NW 14:51:14 17° NNW 14:54:44 10° NNE
SPOT 1/Viking Rocket 3.7 14:47:09 10° SE 14:52:11 52° ENE 14:57:15 10° N
GEOS 3 Rocket 3.7 14:48:18 19° NE 14:52:12 73° SE 14:57:34 10° SW
Cosmos 2228 3.1 14:48:05 10° SSW 14:52:19 76° WNW 14:56:37 10° N
Cosmos 2098 Rocket 3.0 14:52:57 10° S 14:56:55 63° E 15:01:39 10° NNE
Cosmos 1697 Rocket 3.7 14:53:24 10° SSE 14:57:43 23° ESE 14:58:26 23° E
Meteor 1-20 Rocket 4.0 14:53:38 10° NNW 14:59:09 76° ENE 15:04:36 10° SSE
BREEZE-M DEB (TANK) 3.6 14:57:09 10° WSW 15:00:01 44° S 15:05:50 14° ESE
AQUARIUS 4.1 15:02:17 10° SSE 15:06:42 83° WSW 15:11:09 10° NNW
NOSS 2-2 (C) 2.5 15:06:41 10° SW 15:09:47 83° SE 15:10:15 60° ENE
NOSS 3-2 (C) 3.9 15:09:06 10° S 15:13:43 34° ESE 15:15:10 30° E
USA 290 2.9 15:10:34 10° NW 15:13:46 55° WSW 15:16:58 10° SSE
NOSS 3-2 (A) 3.2 15:10:02 10° SW 15:15:10 69° SE 15:18:17 29° ENE
Cosmos 1655 Rocket 4.0 15:09:56 10° N 15:16:07 57° ENE 15:22:15 10° SSE
Cosmos 783 Rocket 4.5 15:11:52 10° NNW 15:17:13 89° WSW 15:22:32 10° SSE
SMAP 4.3 15:13:04 10° S 15:17:32 44° W 15:22:01 10° NNW
Cosmos 2082 4.3 15:14:13 10° NNW 15:19:31 37° NE 15:20:46 33° ENE
Cosmos 1241 Rocket 4.4 15:13:21 10° SSW 15:19:40 69° SE 15:22:58 29° NE
Cosmos 1538 Rocket 4.2 15:17:55 10° NNW 15:23:03 49° NE 15:25:01 33° ESE
CZ-2D R/B 4.3 15:20:35 10° SSW 15:23:32 37° W 15:26:31 10° NNW
Cosmos 2151 3.4 15:20:31 10° NNW 15:24:37 60° W 15:28:42 10° S
Cosmos 1606 Rocket 3.6 15:22:49 10° S 15:27:05 53° E 15:27:45 48° ENE
Cosmos 2297 Rocket 3.0 15:22:44 10° NW 15:28:14 52° WSW 15:33:41 10° S
UNK 4.2 15:24:03 10° N 15:28:35 60° WNW 15:33:05 10° SSW
Meteor 1-25 Rocket 4.3 15:23:07 10° NNW 15:28:59 85° WSW 15:34:48 10° S
BREEZE-M DEB (TANK) 4.2 15:25:53 10° WSW 15:29:11 49° S 15:33:46 23° ESE
Cosmos 1076 Rocket 3.4 15:26:13 10° N 15:30:29 59° ENE 15:32:39 27° SE
Okean 1-7 Rocket 3.7 15:27:02 10° NNW 15:31:26 72° W 15:35:48 10° S
BlueWalker 3 4.5 15:29:07 10° W 15:31:35 17° SW 15:34:03 10° S
Cosmos 1743 4.1 15:29:32 10° NNW 15:32:30 32° W 15:35:27 10° SSW
Cosmos 1656 3.6 15:28:28 10° SSW 15:34:07 89° ESE 15:37:03 30° NNE
Resurs 1-3 3.4 15:30:00 10° SSE 15:34:17 75° ENE 15:38:37 10° NNW
ATLAS CENTAUR R/B 3.3 15:32:39 10° WNW 15:35:11 21° WSW 15:37:39 10° S
Cosmos 1544 Rocket 4.4 15:31:50 10° SSW 15:36:07 51° WNW 15:40:21 11° N
Cosmos 1503 Rocket 3.9 15:31:21 10° S 15:36:31 62° ESE 15:37:54 45° NE
Meteor 2-10 4.1 15:32:12 10° N 15:37:22 54° ENE 15:39:45 31° SE
Lacrosse 4 Rocket 2.6 15:33:40 10° WSW 15:37:24 34° NW 15:38:43 27° N
OceanSat 1 rocket 4.5 15:34:08 10° SSE 15:38:52 71° ENE 15:43:35 10° NNW
Cosmos 2219 3.3 15:36:29 10° NNW 15:42:08 54° NE 15:43:14 47° E
Cosmos 1461 4.1 15:39:03 10° SSW 15:41:17 27° SSE 15:41:17 27° SSE
SJ-7 4.1 15:42:23 59° SSE 15:43:03 88° WSW 15:46:50 10° NNW
Cosmos 1354 Rocket 4.1 15:38:15 10° S 15:43:20 52° ESE 15:43:36 51° E
Meteor 1-5 Rocket 4.0 15:38:52 10° NNW 15:44:13 87° ENE 15:49:38 10° SSE
SKYMED 2 3.4 15:45:54 69° ENE 15:46:16 75° ESE 15:50:36 10° S
Spot 4 Rocket 4.0 15:41:43 10° SSE 15:46:50 81° WSW 15:51:59 10° NNW
CZ-4C R/B 3.4 15:44:01 10° NW 15:50:37 58° SW 15:58:51 10° SSE
COSMO-SKYMED 1 3.9 15:52:52 27° S 15:52:52 27° S 15:54:49 10° S
SL-19 R/B 4.2 15:47:32 10° SSE 15:52:54 84° WSW 15:58:36 10° NNW
Cosmos 1726 Rocket 3.6 15:49:11 10° S 15:53:24 66° SE 15:53:24 66° SE
PSLV R/B 3.4 15:52:38 34° S 15:54:21 78° WSW 15:58:25 10° NNW
Lacrosse 5 rocket 1.6 15:51:47 10° W 15:54:52 57° W 15:54:52 57° W
Cosmos 44 Rocket 4.3 15:52:11 10° NW 15:56:25 34° NNE 15:56:25 34° NNE
Cosmos 2084 4.3 15:54:04 10° W 15:58:01 39° NNW 15:58:08 39° NNW
Cosmos 1777 Rocket 3.9 15:53:26 10° SSW 15:58:42 84° WNW 16:00:11 49° NNE
Cosmos 1867 4.3 15:53:42 10° NW 15:58:59 51° SW 16:03:16 15° SSE
Cosmos 1980 Rocket 3.9 15:54:12 10° SSE 15:55:56 18° SSE 15:55:56 18° SSE
Resurs 01 Rocket 3.4 16:05:25 22° N 16:05:25 22° N 16:06:59 10° N
CZ-2D R/B 4.4 15:59:52 10° S 16:03:57 48° W 16:08:00 10° NNW
Cosmos 1844 Rocket 3.7 15:59:15 10° NNW 16:03:16 32° NNE 16:03:16 32° NNE
YAOGAN 1 3.2 16:04:08 10° S 16:08:18 53° W 16:12:30 10° NNW
Cosmos 2263 Rocket 2.2 16:04:40 10° NW 16:10:22 82° WSW 16:12:02 48° SSE
SL-16 R/B 4.2 16:05:16 10° N 16:10:33 30° NW 16:15:47 10° WSW
CENTAUR R/B 3.2 16:04:54 10° W 16:11:05 54° NNW 16:13:45 37° NNE
Cosmos 1953 Rocket 4.0 16:10:29 10° NNW 16:14:52 61° W 16:16:13 41° SSW
Nadezhda 2 Rocket 4.3 16:09:56 10° N 16:16:09 75° ENE 16:17:08 62° SE
Cosmos 2360 4.4 16:11:40 10° SW 16:17:22 67° NW 16:18:52 48° N
USA 81 4.1 16:12:33 10° N 16:17:50 78° W 16:23:06 10° S
USA 215 3.2 16:17:05 56° ESE 16:18:39 83° SSW 16:25:15 10° WNW
Cosmos 2227 Rocket 3.1 16:13:44 10° NW 16:19:07 47° WSW 16:24:31 10° S
USA 281 3.6 16:24:52 46° NNE 16:24:52 46° NNE 16:30:22 10° NNW
Cosmos 2369 Rocket 4.1 16:23:52 10° WNW 16:27:52 19° NNW 16:29:28 17° N
GEOS 3 Rocket 4.4 16:29:20 43° N 16:30:00 45° NNW 16:35:06 10° W
Cosmos 1943 Rocket 4.2 16:33:51 10° NNW 16:36:13 15° N 16:36:13 15° N
Cosmos 2278 Rocket 4.2 16:33:43 10° NNW 16:36:26 16° N 16:36:26 16° N
Cosmos 1697 Rocket 2.9 16:35:27 10° SW 16:40:12 64° SW 16:40:12 64° SW
Cosmos 2082 4.5 16:58:19 10° NW 17:02:38 49° WNW 17:02:38 49° WNW
NOSS 3-2 (C) 4.0 16:58:43 10° WSW 17:02:36 50° W 17:02:36 50° W
NOSS 3-2 (A) 4.1 17:00:54 10° W 17:05:38 47° NW 17:05:38 47° NW
Lacrosse 4 Rocket 4.5 17:14:01 10° NW 17:14:13 11° NW 17:14:13 11° NW
Cosmos 2263 Rocket 4.5 17:49:40 10° WNW 17:53:28 19° W 17:53:46 19° WSW
CENTAUR R/B 4.0 17:56:25 10° WNW 18:00:51 36° NW 18:00:51 36° NW
